Track STARLINK 1036 now! 10-day predictions STARLINK 1036 is classified as:
1 44741U 19074AE 22140.21088094 .00000980 00000-0 84669-4 0 9996 2 44741 53.0561 324.2265 0001621 75.3436 284.7733 15.06401902139043